Regional Weather Roundup
Issued by NWS Northern Indiana

Home | Current Version | Previous Version | Text Only | Print | Product List | Glossary Off
Versions: 1 2 3 4 5 6 7 8 9 10 11 12 13 14 15 16 17 18 19 20 21 22 23 24 25 26 27 28 29 30 31 32 33 34 35 36 37 38 39 40 41 42 43 44 45 46 47 48 49 50

158
ASUS43 KIWX 271500
RWRIWX

KIWX WEATHER ROUNDUP
NATIONAL WEATHER SERVICE NORTHERN INDIANA
1100 AM EDT FRI MAY 27 2016

NOTE: "FAIR" INDICATES FEW OR NO CLOUDS BELOW 12,000 FEET WITH NO
SIGNIFICANT WEATHER AND/OR OBSTRUCTIONS TO VISIBILITY.

* THESE STATIONS ARE NOT UNDER NWS QUALITY CONTROL. THEY ALSO MAY NOT
  REPORT WEATHER SUCH AS PRECIPITATION OR FOG.

INZ001>027-271600-
NORTHERN INDIANA

CITY           SKY/WX    TMP DP  RH WIND       PRES   REMARKS
GARY*          MOSUNNY   75  72  88 S8        29.92S
SOUTH BEND     PTSUNNY   73  64  73 S13       29.96R
ELKHART*       MOSUNNY   73  68  83 SW12      29.97S
GOSHEN         CLOUDY    74  62  66 S14       29.98R
ANGOLA*          N/A     72  64  78 S9        29.99S
FORT WAYNE     CLOUDY    73  63  70 S7        30.00S
PERU/GRISSOM   MOSUNNY   76  66  71 S7        29.97S

$$
INZ028>050-271600-
CENTRAL INDIANA

CITY           SKY/WX    TMP DP  RH WIND       PRES   REMARKS
LAFAYETTE      CLOUDY    74  63  68 SW8       29.97R
KOKOMO*        CLOUDY    75  64  69 S8        29.98S
MUNCIE*        MOSUNNY   76  63  64 S8        30.01S
INDIANAPOLIS   CLOUDY    74  66  76 S9        29.99R

$$
MIZ043>046-050>051-056>058-064>065-071>073-077>080-271600-
SOUTHWEST LOWER MICHIGAN

CITY           SKY/WX    TMP DP  RH WIND       PRES   REMARKS
BATTLE CREEK   CLOUDY    74  65  73 S7        29.97S
BENTON HARBOR  MOSUNNY   74  64  71 S10       29.93S
COLDWATER*     CLOUDY    75  65  70 S6        29.98S
HILLSDALE*     MOSUNNY   73  60  64 SW3       30.00S
HOLLAND        SUNNY     75  66  73 SW5       29.95R
GRAND RAPIDS   PTSUNNY   80  68  66 S7        29.95R
KALAMAZOO      CLOUDY    76  64  66 S12       29.96S
STURGIS*       MOSUNNY   73  63  71 S12       29.97R
THREE RIVERS*  FAIR      75  63  66 S7        29.97R

$$
OHZ001>008-015>018-024>025-271600-
NORTHWEST OHIO

CITY           SKY/WX    TMP DP  RH WIND       PRES   REMARKS
DEFIANCE       MOSUNNY   75  63  66 S7        29.99F
FINDLAY        SUNNY     78  61  55 SW9       30.00F
TOLEDO EXPRESS SUNNY     77  63  61 VRB7      29.99F
TOLEDO METCALF SUNNY     76  62  62 SW9       30.00F
LIMA           SUNNY     76  63  64 SW9       30.01F

$$
AND FOR LAKE MICHIGAN COASTAL AND OPEN LAKE BUOY OBSERVATIONS

STATION/POSITION TEMP    WIND        PRES    VSBY  WAVE
                 AIR SEA DIR/SP/G                  HT/PER
                 (F)     (DEG/KT/KT) (MB)    (MI)  (FT/S)
CALUMET HARBOR    72     200/  8/ 14 1012.5R
MICHIGAN CITY     71     180/ 10/ 12   N/A
BURNS HARBOR      71     190/ 12/ 16 1013.9R
SAINT JOSEPH      72     180/  7/  9 1014.2F
SOUTH LAKE BUOY   54 50  150/ 10/ 10 1012.2          1
4 MI NW BRIDGMAN  65 61  190/  6/  8   N/A           1/ 2
MICHIGAN CITY     64 58  200/  6/  8   N/A           1/ 2

$$
&&




USA.gov is the U.S. government's official web portal to all federal, state and local government web resources and services.